Terminal Aerodrome Forecast
Issued by NWS Lake Charles, LA

Home | Current Version | Previous Version | Text Only | Print | Product List | Glossary On
Versions: 1 2 3 4 5 6 7 8 9 10 11 12 13 14 15 16
000
FTUS44 KLCH 300912 AAA
TAFAEX
TAF AMD
KAEX 300912Z 3009/3106 15003KT 6SM BR FEW035
      TEMPO 3010/3013 3SM BR BKN025
     FM301400 23005KT P6SM BKN025
     FM301700 24006KT P6SM BKN035
     FM302000 24007KT P6SM SCT035=

USA.gov is the U.S. government's official web portal to all federal, state and local government web resources and services.